Lid_Strength_Index
12 11 11 11 11 10 11 10 12 10 10 8 8 7 6 6 6 6 6 6 6 7 7 8 9 9 11 11 11 11 11 11 11 10 10 10 10 10 9 9 7 7 5 5
13 11 10 11 10 10 9 9 9 9 10 7 6 6 6 6 7 7 7 7 7 7 8 9 10 10 11 11 11 11 12 12 12 11 11 11 10 9 9 10 9 8 7 6
13 11 11 13 10 9 9 9 10 11 8 6 7 8 7 7 8 8 8 8 8 8 8 9 9 9 11 11 10 11 12 12 12 12 12 11 11 11 10 10 9 9 9 8
13 11 16 10 7 7 9 8 7 8 7 8 7 7 7 7 8 8 8 8 8 8 8 9 9 9 10 10 11 11 12 13 13 12 12 11 11 11 10 10 11 11 11 9
14 13 11 10 8 9 9 10 7 8 7 7 7 7 8 7 7 8 8 7 8 8 8 8 9 9 9 10 10 12 12 13 13 12 12 13 13 12 12 11 11 11 11 11
12 14 16 11 7 6 6 13 6 7 8 8 7 10 8 7 7 7 7 8 8 8 8 8 8 9 10 10 10 11 12 12 11 12 12 13 12 12 12 12 12 11 12 12
12 13 12 7 6 5 13 13 7 7 7 8 9 8 7 7 8 8 8 8 8 8 9 9 8 9 10 10 11 11 11 11 11 11 11 11 11 11 11 11 12 12 13 12
12 14 15 6 6 10 8 6 7 7 7 9 8 7 8 9 8 8 8 8 8 9 9 8 9 9 10 10 10 10 11 11 11 11 11 11 11 11 11 12 12 13 13 13
10 10 6 5 6 5 5 6 7 7 7 7 8 9 9 9 8 8 8 8 8 9 9 8 9 9 11 11 11 11 11 12 12 11 12 12 12 12 13 13 13 14 13 13
10 8 6 6 5 5 5 7 7 6 6 7 9 9 9 9 9 9 9 9 9 9 10 10 9 10 10 11 11 12 12 12 11 12 12 12 12 11 12 13 14 14 14 15
9 7 6 6 5 6 6 6 7 7 8 9 9 10 10 10 10 10 10 10 10 11 11 11 10 11 11 11 11 12 12 11 11 12 12 12 11 11 12 12 13 14 14 15
9 7 7 6 5 5 7 7 7 8 8 9 10 10 11 11 11 11 12 11 12 12 12 12 12 12 12 12 12 13 13 12 12 12 12 12 12 12 11 12 12 13 13 14
6 4 5 4 4 4 6 7 8 8 9 10 10 11 11 12 12 13 13 13 14 14 13 13 13 13 13 12 12 13 14 13 13 13 13 13 13 13 14 12 12 12 13 13
4 5 6 5 6 5 6 7 9 9 9 10 11 11 11 12 13 14 15 15 15 15 14 14 14 14 13 12 12 13 12 12 12 12 12 12 12 13 13 14 14 13 13 13
5 4 4 4 6 7 7 8 9 10 10 11 11 12 12 13 14 14 15 15 15 14 15 15 14 14 12 12 12 13 12 12 12 12 12 12 12 12 13 13 13 13 13 13
5 5 5 6 7 8 9 9 10 11 11 11 12 13 13 13 13 13 14 15 15 15 15 14 14 13 12 12 13 12 12 12 12 12 12 12 13 13 14 14 14 14 14 14
6 7 7 8 9 9 10 10 11 11 12 12 13 13 14 14 14 15 15 15 14 14 13 14 14 13 13 12 13 13 12 12 12 12 13 13 13 14 14 14 15 15 15 14
5 6 6 7 9 10 10 11 11 12 12 13 14 15 16 16 16 16 16 15 14 14 14 14 13 13 13 13 13 12 12 12 13 13 13 13 13 13 14 14 15 15 15 15
8 9 9 9 9 10 10 11 12 12 14 14 15 15 15 15 15 15 14 14 14 15 15 13 14 13 13 13 13 13 13 13 13 13 13 13 13 13 14 14 15 15 15 15
8 8 9 11 11 10 12 12 13 13 14 14 15 15 15 15 15 16 14 14 14 15 14 13 13 13 14 13 13 13 13 13 14 14 13 13 13 13 14 14 15 15 15 15
9 9 11 11 13 13 14 13 14 14 15 15 15 16 16 14 14 14 14 15 14 14 13 13 13 14 14 14 13 13 13 14 14 14 14 14 14 14 14 14 14 15 15 15
10 11 13 13 13 14 14 13 13 14 14 15 16 15 15 13 13 13 14 14 13 13 13 13 13 14 13 13 12 12 13 14 14 14 14 14 15 15 14 15 15 15 15 15
11 12 12 13 13 13 13 14 15 15 15 15 15 15 14 13 12 13 14 12 12 13 12 12 14 14 13 12 12 12 13 13 14 14 14 14 14 15 15 15 15 15 16 16
11 11 12 12 13 13 13 13 13 13 14 14 14 15 14 13 12 11 11 12 12 13 11 13 13 13 12 12 12 13 13 13 14 14 14 14 14 14 14 15 16 15 16 16
11 12 12 13 13 12 13 12 13 13 13 12 12 12 12 12 12 12 12 11 11 11 11 11 12 12 11 11 11 12 12 13 14 14 14 14 14 15 15 15 16 16 17 17
11 11 11 11 11 10 10 11 11 11 11 11 11 11 11 11 11 11 10 10 10 11 10 10 11 11 11 11 11 11 12 12 13 13 14 14 14 15 15 15 16 16 17 18
11 11 11 11 11 11 11 11 11 11 11 11 12 11 11 11 11 10 10 10 10 10 10 10 10 10 11 11 11 11 11 11 12 13 13 13 14 15 15 15 16 16 16 18